Flag for Germany Weather past 2 weeks in Waren (Müritz), Mecklenburg-Western Pomerania, Germany

Now
39 °F

Chilly.


Feels Like: 34 °F
Forecast: 39 / 59 °F
Wind: 7 mph from Northwest

Location: Laage

Current Time: Apr 20, 2015 at 1:22:01 AM

Latest Report: Apr 20, 2015 at 12:20 AM


Visibility: N/A

Pressure: 30.24 "Hg

Humidity: 87%

Dew point: 36 °F

Location of Waren (Müritz)Location

Historic Weather in Waren (Müritz) — Graph

°F

Waren (Müritz) temperature yesterday

Maximum temperature yesterday: 57 °F (at 2:20 PM)
Minimum temperature yesterday: 37 °F (at 1:20 AM)
Average temperature yesterday: 45 °F

Past Weeks' High & Low Weather Summary

 TemperatureHumidityPressure
High68 °F (Apr 11, 2:20 PM)100% (Apr 5, 3:20 AM)30.54 "Hg (Apr 5, 3:20 AM)
Low28 °F (Apr 5, 6:20 AM)30% (Apr 15, 4:52 PM)29.77 "Hg (Apr 15, 4:20 PM)
Average46 °F72%30.18 "Hg
* Reported Apr 4 11:20 PM — Apr 19 11:20 PM, Waren (Müritz), Weather by CustomWeather, © 2015

Note: Actual official high and low records may vary slightly from our data, if they occured in-between our weather recording intervals... More about our weather records

Advertising

Waren (Müritz) weather history for previous 24 hours

 ConditionsComfort  
Time TempWeatherWind HumidityBarometerVisibility
11:20 PM
Sun, Apr 19
41 °FPassing clouds.6 mph81%30.24 "HgN/A
10:20 PM43 °FPassing clouds.7 mph81%30.24 "HgN/A
9:20 PM45 °FPassing clouds.7 mph76%30.21 "HgN/A
8:20 PM48 °FBroken clouds.8 mph66%30.21 "HgN/A
7:20 PM52 °FBroken clouds.8 mph47%30.24 "HgN/A
6:20 PM54 °FPartly sunny.9 mph44%30.24 "HgN/A
5:20 PM55 °FScattered clouds.10 mph47%30.21 "HgN/A
4:20 PM57 °FScattered clouds.9 mph51%30.21 "HgN/A
3:20 PM55 °FPartly sunny.7 mph55%30.21 "HgN/A
2:20 PM57 °FScattered clouds.3 mph41%30.24 "HgN/A
1:20 PM55 °FScattered clouds.3 mph47%30.21 "HgN/A
12:20 PM52 °FScattered clouds.3 mph54%30.24 "HgN/A
11:20 AM50 °FScattered clouds.3 mph62%30.21 "HgN/A
10:20 AM48 °FScattered clouds.2 mph71%30.21 "HgN/A
9:20 AM46 °FPassing clouds.2 mph76%30.21 "HgN/A
8:20 AM43 °FQuite cool.3 mph81%30.21 "HgN/A
7:20 AM37 °FPassing clouds.1 mph93%30.18 "HgN/A
6:20 AM37 °FPassing clouds.5 mph93%30.18 "HgN/A
5:48 AM37 °FPassing clouds.3 mph93%30.18 "HgN/A
5:20 AM39 °FPassing clouds.3 mph87%30.18 "HgN/A
4:50 AM37 °FPassing clouds.5 mph93%30.18 "HgN/A
4:20 AM39 °FPassing clouds.5 mph81%30.18 "HgN/A
3:20 AM37 °FPartly cloudy.3 mph81%30.15 "HgN/A
2:20 AM37 °FPassing clouds.3 mph75%30.18 "HgN/A
1:20 AM37 °FPassing clouds.1 mph75%30.18 "HgN/A
Weather by CustomWeather, © 2015

See weather overviewHow to use our weather pages